UAE20 EGCC-OMDB

Flight info

Callsign UAE20
Flight time N/A
Altitude 34000
Route LISTO UQ4 VABKA UL8 BILVO UP6 TUPEM DCT MADAD/N0479F350 DCT BUDON DCT BEREP DCT AMKUX DCT IPNIK DCT VAKOL DCT NISUS DCT ETUVA DCT OBEMU DCT ABLOP DCT RUDAM/K0917F350 N156 UTITA P65 ANVOZ/K0902F370 P65 UREPI/K0898F360 P65 ELMOD/K0887F370 L4 LINRU T614 OSPER T828 NIBIM M54 GUSLI/N0491F370 M54 ADILA N82 ADANO N77 MAGRI R654 BUDED/N0486F390 R654 ZAJ L124 PEKAM P574 SYZ W10 SITEN A418 KIS B547 SIR L223 VUTEB
Aircraft B77W/H-SDE1E2E3FGHIJ2J3J4J5M1RWXY/LB1D1

Departure

Time 2026-05-07 23:29
Airport Manchester Airport (EGCC)

Arrival

Time N/A
Airport Dubai International Airport (OMDB)
Time Latitude Longitude Altitude Speed Heading
2026-05-07 23:03 53.36577 -2.28366 260 ft 0 kts 315°
2026-05-07 23:12 53.36574 -2.28361 260 ft 3 kts 315°
2026-05-07 23:12 53.36555 -2.28329 260 ft 4 kts 315°
2026-05-07 23:13 53.36536 -2.28297 260 ft 4 kts 315°
2026-05-07 23:13 53.36521 -2.28271 260 ft 4 kts 301°
2026-05-07 23:13 53.36521 -2.28240 260 ft 4 kts 231°
2026-05-07 23:13 53.36522 -2.28235 260 ft 4 kts 224°
2026-05-07 23:14 53.36503 -2.28267 260 ft 4 kts 224°
2026-05-07 23:14 53.36483 -2.28299 260 ft 4 kts 224°
2026-05-07 23:14 53.36465 -2.28328 260 ft 2 kts 224°
2026-05-07 23:14 53.36464 -2.28330 260 ft 0 kts 224°
2026-05-07 23:19 53.36455 -2.28346 260 ft 6 kts 224°
2026-05-07 23:19 53.36403 -2.28377 260 ft 10 kts 152°
2026-05-07 23:19 53.36353 -2.28300 260 ft 10 kts 135°
2026-05-07 23:20 53.36298 -2.28207 260 ft 12 kts 135°
2026-05-07 23:20 53.36241 -2.28111 260 ft 12 kts 135°
2026-05-07 23:20 53.36185 -2.28016 260 ft 12 kts 135°
2026-05-07 23:20 53.36122 -2.27930 260 ft 12 kts 142°
2026-05-07 23:21 53.36059 -2.27847 260 ft 12 kts 142°
2026-05-07 23:21 53.36017 -2.27792 260 ft 12 kts 142°
2026-05-07 23:21 53.35919 -2.27729 260 ft 12 kts 178°
2026-05-07 23:21 53.35838 -2.27733 258 ft 13 kts 178°
2026-05-07 23:22 53.35758 -2.27660 255 ft 14 kts 154°
2026-05-07 23:22 53.35694 -2.27613 252 ft 15 kts 151°
2026-05-07 23:22 53.35620 -2.27507 250 ft 13 kts 111°
2026-05-07 23:22 53.35659 -2.27372 256 ft 14 kts 51°
2026-05-07 23:23 53.35720 -2.27247 260 ft 14 kts 51°
2026-05-07 23:23 53.35779 -2.27125 260 ft 14 kts 51°
2026-05-07 23:23 53.35831 -2.26992 260 ft 14 kts 59°
2026-05-07 23:23 53.35887 -2.26865 260 ft 14 kts 54°
2026-05-07 23:24 53.35941 -2.26735 261 ft 14 kts 52°
2026-05-07 23:24 53.36000 -2.26611 260 ft 14 kts 51°
2026-05-07 23:24 53.36055 -2.26497 260 ft 13 kts 51°
2026-05-07 23:24 53.36111 -2.26380 260 ft 13 kts 51°
2026-05-07 23:25 53.36170 -2.26270 260 ft 13 kts 33°
2026-05-07 23:25 53.36234 -2.26172 260 ft 12 kts 51°
2026-05-07 23:25 53.36270 -2.26049 260 ft 12 kts 87°
2026-05-07 23:25 53.36285 -2.25913 260 ft 12 kts 79°
2026-05-07 23:26 53.36265 -2.25785 264 ft 12 kts 126°
2026-05-07 23:26 53.36194 -2.25774 264 ft 12 kts 227°
2026-05-07 23:27 53.36019 -2.26161 264 ft 56 kts 231°
2026-05-07 23:27 53.35558 -2.27116 258 ft 156 kts 231°
2026-05-07 23:27 53.35449 -2.27342 252 ft 171 kts 231°
2026-05-07 23:28 53.35188 -2.27899 294 ft 196 kts 232°
2026-05-07 23:28 53.34695 -2.28950 798 ft 203 kts 231°
2026-05-07 23:29 53.33839 -2.30784 2333 ft 201 kts 230°
2026-05-07 23:29 53.32950 -2.32679 3084 ft 213 kts 230°
2026-05-07 23:29 53.32012 -2.34655 3669 ft 220 kts 231°
2026-05-07 23:29 53.31047 -2.36672 4353 ft 224 kts 231°
2026-05-07 23:30 53.30068 -2.38703 4993 ft 228 kts 230°
2026-05-07 23:30 53.29037 -2.40828 5539 ft 243 kts 230°
2026-05-07 23:30 53.27949 -2.43062 6254 ft 252 kts 230°
2026-05-07 23:30 53.26829 -2.45356 7046 ft 257 kts 230°
2026-05-07 23:31 53.25698 -2.47682 7920 ft 259 kts 230°
2026-05-07 23:31 53.24701 -2.50202 8648 ft 265 kts 250°
2026-05-07 23:31 53.24617 -2.53293 9356 ft 277 kts 283°
2026-05-07 23:31 53.25452 -2.56235 10096 ft 283 kts 294°
2026-05-07 23:32 53.26353 -2.59227 10547 ft 300 kts 292°
2026-05-07 23:32 53.27264 -2.62526 10754 ft 326 kts 291°
2026-05-07 23:32 53.28254 -2.66239 10952 ft 352 kts 291°
2026-05-07 23:32 53.29297 -2.70039 11482 ft 364 kts 296°
2026-05-07 23:33 53.30820 -2.73513 12207 ft 376 kts 311°
2026-05-07 23:33 53.32846 -2.76346 13078 ft 384 kts 325°
2026-05-07 23:33 53.35169 -2.78600 13965 ft 389 kts 329°
2026-05-07 23:33 53.37521 -2.80778 14727 ft 393 kts 329°
2026-05-07 23:34 53.39994 -2.83085 15528 ft 398 kts 328°
2026-05-07 23:34 53.42383 -2.85356 16295 ft 403 kts 328°
2026-05-07 23:34 53.44868 -2.87752 17072 ft 408 kts 327°
2026-05-07 23:34 53.47338 -2.90148 17832 ft 413 kts 327°
2026-05-07 23:35 53.49799 -2.92693 18540 ft 417 kts 324°
2026-05-07 23:35 53.52226 -2.95384 19208 ft 421 kts 323°
2026-05-07 23:35 53.54677 -2.98135 19899 ft 425 kts 324°
2026-05-07 23:35 53.57064 -3.00793 20544 ft 429 kts 324°
2026-05-07 23:36 53.59568 -3.03564 21193 ft 433 kts 324°
2026-05-07 23:36 53.62101 -3.06368 21825 ft 437 kts 324°
2026-05-07 23:36 53.64651 -3.09195 22440 ft 441 kts 324°
2026-05-07 23:36 53.67230 -3.12059 23085 ft 446 kts 324°
2026-05-07 23:37 53.69827 -3.14983 23645 ft 450 kts 321°
2026-05-07 23:37 53.72230 -3.18367 24152 ft 450 kts 312°
2026-05-07 23:37 53.74335 -3.22271 24697 ft 450 kts 306°
2026-05-07 23:37 53.76125 -3.26587 25214 ft 449 kts 298°
2026-05-07 23:38 53.77713 -3.31152 25705 ft 452 kts 297°
2026-05-07 23:38 53.79349 -3.35713 26128 ft 454 kts 302°
2026-05-07 23:38 53.81549 -3.39635 26383 ft 469 kts 321°
2026-05-07 23:38 53.84466 -3.42184 26812 ft 479 kts 340°
2026-05-07 23:39 53.87774 -3.43090 27330 ft 486 kts 358°
2026-05-07 23:39 53.91146 -3.42466 27797 ft 492 kts 14°
2026-05-07 23:39 53.94331 -3.40331 28151 ft 494 kts 25°
2026-05-07 23:39 53.97452 -3.37752 28392 ft 501 kts 25°
2026-05-07 23:40 54.00577 -3.35111 28729 ft 505 kts 26°
2026-05-07 23:40 54.03723 -3.32457 29169 ft 506 kts 25°
2026-05-07 23:40 54.06892 -3.29816 29572 ft 508 kts 25°
2026-05-07 23:40 54.10080 -3.27192 29912 ft 510 kts 25°
2026-05-07 23:41 54.13287 -3.24580 30250 ft 512 kts 25°
2026-05-07 23:41 54.16500 -3.21977 30638 ft 511 kts 24°
2026-05-07 23:41 54.19713 -3.19378 31067 ft 509 kts 24°
2026-05-07 23:41 54.22907 -3.16792 31493 ft 508 kts 24°
2026-05-07 23:42 54.26100 -3.14201 31911 ft 507 kts 24°
2026-05-07 23:42 54.29282 -3.11612 32310 ft 506 kts 24°
2026-05-07 23:42 54.32454 -3.09026 32645 ft 506 kts 24°
2026-05-07 23:42 54.35626 -3.06434 32995 ft 505 kts 24°
2026-05-07 23:43 54.38761 -3.03868 33332 ft 505 kts 24°
2026-05-07 23:43 54.41970 -3.01235 33694 ft 504 kts 24°
2026-05-07 23:43 54.45139 -2.98630 33979 ft 505 kts 24°
2026-05-07 23:43 54.48317 -2.96015 34023 ft 508 kts 25°
2026-05-07 23:44 54.54631 -2.90803 34022 ft 503 kts 25°
2026-05-07 23:44 54.60930 -2.85586 34026 ft 501 kts 25°
2026-05-07 23:45 54.67212 -2.80366 34026 ft 501 kts 25°
2026-05-07 23:45 54.73505 -2.75120 34043 ft 502 kts 25°
2026-05-07 23:46 54.79807 -2.69847 34014 ft 503 kts 25°
2026-05-07 23:46 54.86114 -2.64551 34006 ft 503 kts 25°
2026-05-07 23:47 54.92415 -2.59242 33994 ft 503 kts 25°
2026-05-07 23:47 54.98713 -2.53916 34001 ft 503 kts 25°
2026-05-07 23:48 55.04998 -2.48583 33993 ft 503 kts 25°
2026-05-07 23:48 55.11287 -2.43229 33993 ft 503 kts 25°
2026-05-07 23:49 55.17577 -2.37854 34002 ft 503 kts 25°
2026-05-07 23:49 55.23825 -2.32496 34008 ft 503 kts 25°
2026-05-07 23:50 55.30107 -2.27090 34017 ft 503 kts 26°
2026-05-07 23:50 55.36398 -2.21656 34010 ft 504 kts 26°
2026-05-07 23:51 55.42684 -2.16208 34006 ft 503 kts 26°
2026-05-07 23:51 55.48950 -2.10758 34005 ft 502 kts 26°
2026-05-07 23:52 55.55210 -2.05294 34005 ft 502 kts 26°
2026-05-07 23:52 55.61406 -1.99866 34012 ft 503 kts 26°
2026-05-07 23:53 55.67624 -1.94399 33999 ft 503 kts 26°
2026-05-07 23:53 55.73861 -1.88896 34001 ft 504 kts 26°
2026-05-07 23:54 55.80145 -1.83331 34001 ft 505 kts 27°
2026-05-07 23:54 55.86439 -1.77737 34004 ft 506 kts 27°
2026-05-07 23:55 55.92802 -1.72334 34008 ft 507 kts 21°
2026-05-07 23:55 55.98375 -1.68774 33978 ft 508 kts 19°
2026-05-07 23:56 56.05061 -1.64714 33997 ft 508 kts 19°
2026-05-07 23:56 56.11717 -1.60615 33996 ft 509 kts 19°
2026-05-07 23:57 56.18417 -1.56405 34002 ft 509 kts 20°
2026-05-07 23:57 56.25097 -1.52168 34003 ft 509 kts 20°
2026-05-07 23:58 56.31770 -1.47921 33999 ft 510 kts 20°
2026-05-07 23:58 56.38469 -1.43645 34000 ft 511 kts 20°
2026-05-07 23:59 56.45192 -1.39339 33995 ft 512 kts 20°
2026-05-07 23:59 56.51919 -1.35015 33995 ft 513 kts 20°
2026-05-08 00:00 56.58615 -1.30696 34007 ft 514 kts 20°
2026-05-08 00:00 56.65371 -1.26318 33999 ft 516 kts 20°
2026-05-08 00:01 56.72159 -1.21904 33998 ft 518 kts 20°
2026-05-08 00:01 56.78953 -1.17470 33989 ft 519 kts 20°
2026-05-08 00:02 56.85760 -1.13012 33993 ft 520 kts 21°
2026-05-08 00:02 56.92586 -1.08520 33997 ft 522 kts 21°
2026-05-08 00:03 56.99435 -1.03996 33991 ft 524 kts 21°
2026-05-08 00:03 57.06160 -0.99539 33987 ft 524 kts 21°
2026-05-08 00:04 57.13022 -0.94972 33995 ft 525 kts 21°
2026-05-08 00:04 57.19903 -0.90375 33988 ft 526 kts 21°
2026-05-08 00:05 57.26743 -0.85786 33990 ft 526 kts 21°
2026-05-08 00:05 57.33622 -0.81153 33986 ft 526 kts 21°
2026-05-08 00:06 57.40511 -0.76495 33983 ft 527 kts 21°
2026-05-08 00:06 57.47405 -0.71814 33992 ft 527 kts 21°
2026-05-08 00:07 57.54291 -0.67119 33990 ft 528 kts 21°
2026-05-08 00:07 57.61193 -0.62396 33978 ft 528 kts 21°
2026-05-08 00:08 57.67984 -0.57198 33980 ft 527 kts 30°
2026-05-08 00:08 57.74145 -0.49892 33986 ft 523 kts 41°
2026-05-08 00:09 57.79640 -0.40990 33995 ft 522 kts 45°
2026-05-08 00:09 57.85059 -0.31843 33983 ft 523 kts 45°
2026-05-08 00:10 57.90490 -0.22728 33984 ft 524 kts 45°
2026-05-08 00:10 57.95946 -0.13628 33983 ft 525 kts 45°
2026-05-08 00:11 58.01382 -0.04553 33982 ft 526 kts 45°
2026-05-08 00:11 58.06752 0.04455 33983 ft 525 kts 45°
2026-05-08 00:12 58.12199 0.13637 33987 ft 525 kts 45°
2026-05-08 00:12 58.17635 0.22843 33987 ft 524 kts 45°
2026-05-08 00:13 58.23066 0.32081 34000 ft 525 kts 45°
2026-05-08 00:13 58.28503 0.41370 33998 ft 526 kts 45°
2026-05-08 00:14 58.33945 0.50705 34006 ft 527 kts 45°
2026-05-08 00:14 58.39383 0.60074 34004 ft 528 kts 45°
2026-05-08 00:15 58.44813 0.69468 34000 ft 526 kts 45°
2026-05-08 00:15 58.50191 0.78813 34015 ft 526 kts 45°
2026-05-08 00:16 58.55600 0.88256 34013 ft 526 kts 45°
2026-05-08 00:16 58.61007 0.97736 34009 ft 526 kts 45°
2026-05-08 00:17 58.66310 1.07072 34023 ft 527 kts 45°
2026-05-08 00:17 58.71719 1.16639 34019 ft 527 kts 45°
2026-05-08 00:18 58.77070 1.26143 33991 ft 527 kts 45°
2026-05-08 00:18 58.82449 1.35740 34023 ft 525 kts 45°
2026-05-08 00:19 58.87797 1.45324 34025 ft 524 kts 45°
2026-05-08 00:19 58.93174 1.55003 34035 ft 524 kts 45°
2026-05-08 00:20 58.98463 1.64565 34035 ft 523 kts 45°
2026-05-08 00:20 59.03898 1.73956 34054 ft 525 kts 39°
2026-05-08 00:21 59.10036 1.81736 34070 ft 527 kts 31°
2026-05-08 00:21 59.16370 1.88988 34048 ft 529 kts 31°
2026-05-08 00:22 59.22702 1.96310 34045 ft 528 kts 31°
2026-05-08 00:22 59.28873 2.03577 34041 ft 527 kts 31°
2026-05-08 00:23 59.35129 2.11019 34057 ft 527 kts 31°
2026-05-08 00:23 59.41389 2.18499 34054 ft 526 kts 31°
2026-05-08 00:24 59.47639 2.25993 34057 ft 526 kts 31°
2026-05-08 00:24 59.53897 2.33524 34052 ft 527 kts 31°
2026-05-08 00:25 59.60146 2.41078 34070 ft 527 kts 31°
2026-05-08 00:25 59.66401 2.48674 34063 ft 529 kts 31°
2026-05-08 00:26 59.72672 2.56322 34064 ft 529 kts 31°
2026-05-08 00:26 59.78903 2.63957 34045 ft 529 kts 31°
2026-05-08 00:27 59.85193 2.71698 34068 ft 528 kts 31°
2026-05-08 00:27 59.91438 2.79419 34074 ft 528 kts 31°
2026-05-08 00:28 59.97633 2.87111 34073 ft 528 kts 31°
2026-05-08 00:28 60.03900 2.94927 34080 ft 528 kts 31°
2026-05-08 00:29 60.09973 3.02537 34082 ft 528 kts 31°
2026-05-08 00:29 60.16239 3.10423 34086 ft 529 kts 31°
2026-05-08 00:30 60.22441 3.18264 34082 ft 530 kts 31°
2026-05-08 00:30 60.28693 3.26204 34082 ft 531 kts 31°
2026-05-08 00:31 60.34941 3.34177 34083 ft 532 kts 31°
2026-05-08 00:31 60.41188 3.42184 34076 ft 530 kts 31°
2026-05-08 00:32 60.47417 3.50206 34080 ft 530 kts 31°
2026-05-08 00:32 60.53637 3.58253 34083 ft 530 kts 31°
2026-05-08 00:33 60.59855 3.66334 34081 ft 530 kts 31°
2026-05-08 00:33 60.66064 3.74414 34081 ft 530 kts 30°
2026-05-08 00:34 60.72350 3.82117 34114 ft 530 kts 28°
2026-05-08 00:34 60.78763 3.89781 34114 ft 531 kts 28°
2026-05-08 00:35 60.85104 3.97452 34119 ft 532 kts 28°
2026-05-08 00:35 60.91349 4.05113 34113 ft 533 kts 28°
2026-05-08 00:36 60.97720 4.12988 34099 ft 534 kts 28°
2026-05-08 00:36 61.04076 4.20880 34101 ft 533 kts 28°
2026-05-08 00:37 61.10419 4.28786 34114 ft 532 kts 28°
2026-05-08 00:38 61.19900 4.40669 34113 ft 531 kts 28°
2026-05-08 00:38 61.26221 4.48640 34156 ft 530 kts 28°
2026-05-08 00:39 61.32529 4.56632 34121 ft 532 kts 28°
2026-05-08 00:39 61.38850 4.64677 34113 ft 533 kts 28°
2026-05-08 00:40 61.45167 4.72759 34109 ft 534 kts 28°
2026-05-08 00:40 61.50435 4.79527 34107 ft 534 kts 28°
2026-05-08 00:41 61.56762 4.87693 34105 ft 535 kts 28°
2026-05-08 00:41 61.63095 4.95906 34083 ft 535 kts 28°
2026-05-08 00:42 61.69300 5.03994 34103 ft 533 kts 28°
2026-05-08 00:42 61.75602 5.12246 34101 ft 532 kts 28°
2026-05-08 00:43 61.81880 5.20508 34106 ft 531 kts 28°
2026-05-08 00:43 61.88145 5.28792 34125 ft 530 kts 27°
2026-05-08 00:44 61.94403 5.37106 34102 ft 531 kts 27°
2026-05-08 00:44 62.00653 5.45451 34105 ft 531 kts 28°
2026-05-08 00:45 62.06914 5.53852 34103 ft 532 kts 28°
2026-05-08 00:45 62.13146 5.62258 34132 ft 533 kts 27°
2026-05-08 00:46 62.19454 5.70807 34104 ft 534 kts 27°
2026-05-08 00:46 62.25683 5.79291 34087 ft 533 kts 27°
2026-05-08 00:47 62.31932 5.87873 34098 ft 532 kts 28°
2026-05-08 00:47 62.38092 5.96700 34093 ft 532 kts 29°
2026-05-08 00:48 62.44106 6.05478 34096 ft 531 kts 28°
2026-05-08 00:48 62.50212 6.14398 34103 ft 529 kts 28°
2026-05-08 00:49 62.56337 6.23341 34451 ft 531 kts 28°
2026-05-08 00:49 62.59395 6.27823 34829 ft 528 kts 29°
2026-05-08 00:49 62.62433 6.32286 35211 ft 525 kts 29°
2026-05-08 00:49 62.65443 6.36722 35590 ft 523 kts 30°
2026-05-08 00:50 62.68452 6.41166 35943 ft 521 kts 30°
2026-05-08 00:50 62.71447 6.45598 36075 ft 523 kts 30°
2026-05-08 00:50 62.74460 6.50067 36100 ft 523 kts 30°
2026-05-08 00:51 62.80460 6.59005 36110 ft 520 kts 30°
2026-05-08 00:51 62.86422 6.67935 36116 ft 518 kts 30°
2026-05-08 00:52 62.92358 6.76866 36116 ft 517 kts 30°
2026-05-08 00:52 62.98281 6.85823 36156 ft 517 kts 30°
2026-05-08 00:53 63.04201 6.94820 36132 ft 518 kts 30°
2026-05-08 00:53 63.10018 7.03705 36128 ft 518 kts 30°
2026-05-08 00:54 63.15947 7.12809 36120 ft 519 kts 30°
2026-05-08 00:54 63.21834 7.21892 36131 ft 519 kts 30°
2026-05-08 00:55 63.27750 7.31068 36147 ft 519 kts 30°
2026-05-08 00:55 63.33659 7.40281 36151 ft 518 kts 30°
2026-05-08 00:56 63.39566 7.49537 36129 ft 517 kts 30°
2026-05-08 00:56 63.45449 7.58801 36159 ft 517 kts 30°
2026-05-08 00:57 63.51320 7.68095 36142 ft 516 kts 30°
2026-05-08 00:57 63.57165 7.77396 36155 ft 515 kts 30°
2026-05-08 00:58 63.62958 7.86662 36150 ft 513 kts 30°
2026-05-08 00:58 63.68766 7.95999 36152 ft 512 kts 30°
2026-05-08 00:59 63.74440 8.05163 36154 ft 511 kts 30°
2026-05-08 00:59 63.80261 8.14315 36164 ft 509 kts 28°
2026-05-08 01:00 63.86200 8.23291 36166 ft 509 kts 28°
2026-05-08 01:00 63.92081 8.32223 36174 ft 509 kts 28°
2026-05-08 01:01 63.97921 8.41208 36169 ft 509 kts 29°
2026-05-08 01:01 64.03760 8.50276 36174 ft 508 kts 29°
2026-05-08 01:02 64.09598 8.59393 36177 ft 508 kts 29°
2026-05-08 01:02 64.15445 8.68566 36184 ft 509 kts 30°
2026-05-08 01:03 64.21281 8.77770 36185 ft 508 kts 30°
2026-05-08 01:03 64.27100 8.86992 36187 ft 507 kts 30°
2026-05-08 01:04 64.32906 8.96241 36171 ft 506 kts 30°
2026-05-08 01:04 64.38582 9.05330 36194 ft 506 kts 30°
2026-05-08 01:05 64.44354 9.14621 36190 ft 506 kts 30°
2026-05-08 01:05 64.50084 9.23892 36194 ft 506 kts 30°
2026-05-08 01:06 64.55857 9.33282 36191 ft 506 kts 30°
2026-05-08 01:06 64.61623 9.42710 36198 ft 506 kts 30°
2026-05-08 01:07 64.67380 9.52174 36227 ft 507 kts 30°
2026-05-08 01:07 64.73144 9.61698 36201 ft 507 kts 31°
2026-05-08 01:08 64.78911 9.71280 36200 ft 508 kts 31°
2026-05-08 01:08 64.84631 9.80834 36200 ft 508 kts 31°
2026-05-08 01:09 64.90380 9.90489 36198 ft 508 kts 31°
2026-05-08 01:09 64.96093 10.00134 36205 ft 508 kts 31°
2026-05-08 01:10 65.01761 10.09753 36211 ft 510 kts 31°
2026-05-08 01:10 65.07515 10.19572 36208 ft 510 kts 31°
2026-05-08 01:11 65.13277 10.29459 36208 ft 511 kts 31°
2026-05-08 01:11 65.19035 10.39393 36214 ft 511 kts 31°
2026-05-08 01:12 65.24780 10.49360 36209 ft 511 kts 31°
2026-05-08 01:12 65.30526 10.59382 36208 ft 512 kts 31°
2026-05-08 01:13 65.36269 10.69457 36207 ft 512 kts 31°
2026-05-08 01:13 65.42006 10.79575 36211 ft 511 kts 31°
2026-05-08 01:14 65.47741 10.89747 36212 ft 511 kts 32°
2026-05-08 01:14 65.53459 10.99946 36246 ft 511 kts 32°
2026-05-08 01:15 65.59044 11.09963 36221 ft 510 kts 32°
2026-05-08 01:15 65.64723 11.20191 36210 ft 507 kts 31°
2026-05-08 01:16 65.70457 11.30107 36210 ft 504 kts 30°
2026-05-08 01:16 65.76205 11.39834 36215 ft 503 kts 30°
2026-05-08 01:17 65.81898 11.49554 36216 ft 503 kts 30°
2026-05-08 01:17 65.87618 11.59441 36212 ft 503 kts 31°
2026-05-08 01:18 65.93325 11.69388 36211 ft 503 kts 31°
2026-05-08 01:18 65.99027 11.79383 36222 ft 503 kts 31°
2026-05-08 01:19 66.04719 11.89412 36219 ft 504 kts 31°
2026-05-08 01:19 66.10410 11.99494 36216 ft 504 kts 31°
2026-05-08 01:20 66.16006 12.09462 36224 ft 506 kts 32°
2026-05-08 01:20 66.21705 12.19672 36216 ft 506 kts 32°
2026-05-08 01:21 66.27397 12.29929 36214 ft 506 kts 32°
2026-05-08 01:21 66.33082 12.40232 36208 ft 505 kts 32°
2026-05-08 01:22 66.38757 12.50575 36206 ft 504 kts 32°
2026-05-08 01:22 66.44409 12.60934 36216 ft 504 kts 33°
2026-05-08 01:23 66.50060 12.71352 36211 ft 504 kts 33°
2026-05-08 01:23 66.54740 12.80026 36209 ft 503 kts 33°
2026-05-08 01:24 66.60370 12.90516 36207 ft 503 kts 33°
2026-05-08 01:24 66.65889 13.00857 36208 ft 503 kts 33°
2026-05-08 01:25 66.72406 13.13142 36203 ft 503 kts 33°
2026-05-08 01:25 66.77101 13.22048 36208 ft 503 kts 34°
2026-05-08 01:26 66.82693 13.32712 36208 ft 503 kts 34°
2026-05-08 01:26 66.88278 13.43424 36201 ft 503 kts 34°
2026-05-08 01:27 66.93823 13.54122 36208 ft 503 kts 34°
2026-05-08 01:27 66.99399 13.64939 36207 ft 503 kts 34°
2026-05-08 01:28 67.04964 13.75803 36202 ft 503 kts 34°
2026-05-08 01:28 67.10530 13.86735 36196 ft 504 kts 34°
2026-05-08 01:29 67.16087 13.97712 36198 ft 503 kts 34°
2026-05-08 01:29 67.21512 14.08490 36211 ft 503 kts 34°
2026-05-08 01:30 67.27046 14.19552 36212 ft 503 kts 35°
2026-05-08 01:30 67.32569 14.30659 36212 ft 503 kts 35°
2026-05-08 01:31 67.38097 14.41842 36214 ft 503 kts 35°
2026-05-08 01:31 67.43609 14.53060 36209 ft 503 kts 35°
2026-05-08 01:32 67.49107 14.64321 36205 ft 503 kts 35°
2026-05-08 01:32 67.54577 14.75583 36217 ft 503 kts 36°
2026-05-08 01:33 67.59854 14.87699 36202 ft 506 kts 45°
2026-05-08 01:33 67.64382 15.01410 36203 ft 507 kts 47°
2026-05-08 01:34 67.68900 15.15645 36210 ft 507 kts 47°
2026-05-08 01:34 67.73429 15.29870 36206 ft 506 kts 47°
2026-05-08 01:35 67.77970 15.44075 36198 ft 506 kts 47°
2026-05-08 01:35 67.82505 15.58301 36208 ft 506 kts 47°
2026-05-08 01:36 67.87030 15.72594 36192 ft 506 kts 48°
2026-05-08 01:36 67.91543 15.86959 36185 ft 505 kts 48°
2026-05-08 01:37 67.95946 16.01068 36186 ft 505 kts 48°
2026-05-08 01:37 68.00398 16.15427 36188 ft 504 kts 48°
2026-05-08 01:38 68.04851 16.29886 36190 ft 504 kts 48°
2026-05-08 01:38 68.09295 16.44414 36192 ft 504 kts 49°
2026-05-08 01:39 68.13720 16.58976 36188 ft 504 kts 49°
2026-05-08 01:39 68.18142 16.73627 36181 ft 504 kts 49°
2026-05-08 01:40 68.22541 16.88304 36188 ft 504 kts 49°
2026-05-08 01:40 68.26816 17.02659 36171 ft 504 kts 49°
2026-05-08 01:41 68.31192 17.17454 36195 ft 504 kts 49°
2026-05-08 01:41 68.35551 17.32290 36195 ft 503 kts 50°
2026-05-08 01:42 68.39897 17.47189 36184 ft 503 kts 50°
2026-05-08 01:42 68.44232 17.62153 36180 ft 503 kts 50°
2026-05-08 01:43 68.48544 17.77137 36190 ft 503 kts 50°
2026-05-08 01:43 68.52851 17.92210 36187 ft 503 kts 50°
2026-05-08 01:44 68.57056 18.07029 36207 ft 503 kts 51°
2026-05-08 01:44 68.61329 18.22190 36192 ft 503 kts 51°
2026-05-08 01:45 68.65563 18.37317 36189 ft 503 kts 51°
2026-05-08 01:45 68.69803 18.52574 36180 ft 502 kts 51°
2026-05-08 01:46 68.74025 18.67875 36180 ft 502 kts 51°
2026-05-08 01:46 68.78233 18.83231 36181 ft 501 kts 51°
2026-05-08 01:47 68.82428 18.98648 36205 ft 501 kts 52°
2026-05-08 01:47 68.86520 19.13795 36199 ft 500 kts 52°
2026-05-08 01:48 68.92743 19.37037 36202 ft 499 kts 52°
2026-05-08 01:48 68.96843 19.52484 36209 ft 499 kts 52°
2026-05-08 01:49 69.00948 19.68059 36211 ft 499 kts 52°
2026-05-08 01:49 69.05044 19.83716 36190 ft 499 kts 52°
2026-05-08 01:50 69.09138 19.99469 36195 ft 499 kts 52°
2026-05-08 01:50 69.12660 20.15672 36197 ft 498 kts 72°
2026-05-08 01:51 69.13268 20.25236 36207 ft 500 kts 89°
2026-05-08 01:51 69.12958 20.34933 36203 ft 501 kts 102°
2026-05-08 01:51 69.11858 20.44162 36198 ft 501 kts 117°
2026-05-08 01:51 69.10167 20.52694 36221 ft 500 kts 121°
2026-05-08 01:52 69.06586 20.69490 36203 ft 504 kts 121°
2026-05-08 01:52 69.03012 20.86277 36203 ft 507 kts 121°
2026-05-08 01:53 68.99494 21.03093 36189 ft 509 kts 120°
2026-05-08 01:53 68.95958 21.20045 36188 ft 509 kts 120°
2026-05-08 01:54 68.92391 21.37024 36189 ft 508 kts 121°
2026-05-08 01:54 68.88810 21.53905 36191 ft 507 kts 121°
2026-05-08 01:55 68.85224 21.70666 36189 ft 506 kts 121°
2026-05-08 01:55 68.81622 21.87369 36195 ft 505 kts 121°
2026-05-08 01:56 68.78074 22.03693 36194 ft 504 kts 121°
2026-05-08 01:56 68.74454 22.20228 36190 ft 504 kts 122°
2026-05-08 01:57 68.70809 22.36745 36211 ft 505 kts 122°
2026-05-08 01:57 68.67136 22.53264 36213 ft 506 kts 122°
2026-05-08 01:58 68.63446 22.69732 36197 ft 507 kts 122°
2026-05-08 01:58 68.59722 22.86224 36186 ft 508 kts 122°
2026-05-08 01:59 68.56062 23.02314 36180 ft 508 kts 122°
2026-05-08 01:59 68.52334 23.18577 36160 ft 508 kts 123°
2026-05-08 02:00 68.48562 23.34914 36133 ft 508 kts 123°
2026-05-08 02:00 68.44776 23.51184 36204 ft 508 kts 123°
2026-05-08 02:01 68.40982 23.67368 36207 ft 508 kts 123°
2026-05-08 02:01 68.37171 23.83505 36212 ft 507 kts 123°
2026-05-08 02:02 68.33349 23.99565 36192 ft 507 kts 123°
2026-05-08 02:02 68.29558 24.15385 36197 ft 507 kts 123°
2026-05-08 02:03 68.25737 24.31210 36198 ft 507 kts 124°
2026-05-08 02:03 68.21875 24.47095 36212 ft 507 kts 124°
2026-05-08 02:04 68.17996 24.62947 36198 ft 507 kts 124°
2026-05-08 02:04 68.14213 24.78917 36195 ft 507 kts 119°
2026-05-08 02:05 68.11088 24.95898 36216 ft 508 kts 116°
2026-05-08 02:05 68.08068 25.12588 36213 ft 508 kts 116°
2026-05-08 02:06 68.04945 25.29549 36212 ft 508 kts 117°
2026-05-08 02:06 68.01787 25.46437 36189 ft 509 kts 117°
2026-05-08 02:07 67.99150 25.60400 36210 ft 509 kts 117°
2026-05-08 02:07 67.95949 25.77237 36193 ft 509 kts 117°
2026-05-08 02:08 67.92736 25.94006 36195 ft 509 kts 117°
2026-05-08 02:08 67.89564 26.10436 36207 ft 509 kts 118°
2026-05-08 02:09 67.86318 26.27114 36195 ft 509 kts 118°
2026-05-08 02:09 67.83054 26.43747 36194 ft 508 kts 118°
2026-05-08 02:10 67.79775 26.60326 36193 ft 508 kts 118°
2026-05-08 02:10 67.76479 26.76865 36187 ft 508 kts 118°
2026-05-08 02:11 67.73171 26.93332 36190 ft 508 kts 118°
2026-05-08 02:11 67.69905 27.09460 36177 ft 508 kts 119°
2026-05-08 02:12 67.66563 27.25842 36181 ft 508 kts 119°
2026-05-08 02:12 67.63201 27.42190 36180 ft 508 kts 119°
2026-05-08 02:13 67.59824 27.58488 36180 ft 508 kts 119°
2026-05-08 02:13 67.56427 27.74757 36179 ft 509 kts 120°
2026-05-08 02:14 67.53017 27.90963 36180 ft 509 kts 120°
2026-05-08 02:14 67.49654 28.06828 36184 ft 509 kts 120°
2026-05-08 02:15 67.46209 28.22955 36182 ft 509 kts 120°
2026-05-08 02:15 67.42751 28.39022 36183 ft 509 kts 120°
2026-05-08 02:16 67.39278 28.55040 36181 ft 509 kts 120°
2026-05-08 02:16 67.35808 28.70927 36171 ft 509 kts 121°
2026-05-08 02:17 67.32277 28.86976 36177 ft 509 kts 121°
2026-05-08 02:17 67.28820 29.02568 36180 ft 509 kts 121°
2026-05-08 02:18 67.25285 29.18417 36176 ft 509 kts 121°
2026-05-08 02:18 67.21533 29.33933 36172 ft 508 kts 130°
2026-05-08 02:19 67.16598 29.46814 36173 ft 504 kts 143°
2026-05-08 02:19 67.10832 29.57027 36168 ft 502 kts 148°
2026-05-08 02:20 67.05026 29.66850 36173 ft 503 kts 148°
2026-05-08 02:20 66.99205 29.76785 36172 ft 504 kts 148°
2026-05-08 02:21 66.93377 29.86769 36170 ft 505 kts 148°
2026-05-08 02:21 66.87536 29.96734 36170 ft 505 kts 148°
2026-05-08 02:22 66.81809 30.06442 36167 ft 505 kts 148°
2026-05-08 02:22 66.75949 30.16310 36154 ft 505 kts 148°
2026-05-08 02:23 66.70084 30.26130 36151 ft 505 kts 148°
2026-05-08 02:23 66.64213 30.35902 36154 ft 505 kts 149°
2026-05-08 02:24 66.58334 30.45633 36145 ft 505 kts 149°
2026-05-08 02:24 66.52454 30.55311 36149 ft 505 kts 149°
2026-05-08 02:25 66.46570 30.64943 36147 ft 505 kts 149°
2026-05-08 02:25 66.40683 30.74524 36148 ft 505 kts 149°
2026-05-08 02:26 66.34783 30.84056 36146 ft 505 kts 149°
2026-05-08 02:26 66.28879 30.93544 36146 ft 505 kts 149°
2026-05-08 02:27 66.23079 31.02817 36130 ft 506 kts 150°
2026-05-08 02:27 66.17157 31.12236 36144 ft 505 kts 150°
2026-05-08 02:28 66.11230 31.21609 36138 ft 505 kts 150°
2026-05-08 02:28 66.05302 31.30931 36138 ft 505 kts 150°
2026-05-08 02:29 65.99379 31.40194 36116 ft 505 kts 150°
2026-05-08 02:29 65.93436 31.49435 36132 ft 505 kts 150°
2026-05-08 02:30 65.87499 31.58616 36136 ft 505 kts 150°
2026-05-08 02:30 65.81539 31.67782 36138 ft 505 kts 150°
2026-05-08 02:31 65.75617 31.76839 36133 ft 506 kts 150°
2026-05-08 02:31 65.69610 31.85976 36134 ft 506 kts 151°
2026-05-08 02:32 65.63641 31.95009 36139 ft 506 kts 151°
2026-05-08 02:32 65.57776 32.03839 36126 ft 506 kts 151°
2026-05-08 02:33 65.51905 32.13281 36156 ft 507 kts 147°
2026-05-08 02:33 65.46212 32.23148 36129 ft 508 kts 147°
2026-05-08 02:34 65.40476 32.33043 36114 ft 508 kts 147°
2026-05-08 02:34 65.34725 32.42862 36127 ft 508 kts 148°
2026-05-08 02:35 65.28948 32.52647 36117 ft 508 kts 148°
2026-05-08 02:35 65.23165 32.62383 36124 ft 508 kts 148°
2026-05-08 02:36 65.17383 32.72071 36130 ft 509 kts 148°
2026-05-08 02:36 65.11573 32.81753 36124 ft 509 kts 148°
2026-05-08 02:37 65.05769 32.91374 36126 ft 509 kts 148°
2026-05-08 02:37 65.00065 33.00779 36102 ft 509 kts 148°
2026-05-08 02:38 64.94254 33.10309 36117 ft 508 kts 149°
2026-05-08 02:38 64.88475 33.19734 36116 ft 508 kts 149°
2026-05-08 02:39 64.82653 33.29179 36117 ft 508 kts 149°
2026-05-08 02:39 64.76834 33.38570 36096 ft 508 kts 149°
2026-05-08 02:40 64.71001 33.47932 36110 ft 508 kts 149°
2026-05-08 02:40 64.65167 33.57248 36115 ft 508 kts 149°
2026-05-08 02:41 64.59322 33.66530 36112 ft 508 kts 149°
2026-05-08 02:41 64.53465 33.75782 36114 ft 509 kts 149°
2026-05-08 02:42 64.47599 33.85000 36114 ft 509 kts 149°
2026-05-08 02:42 64.41730 33.94178 36114 ft 508 kts 150°
2026-05-08 02:43 64.35977 34.03124 36113 ft 508 kts 150°
2026-05-08 02:43 64.30103 34.12211 36111 ft 508 kts 150°
2026-05-08 02:44 64.24224 34.21258 36113 ft 508 kts 150°
2026-05-08 02:44 64.18339 34.30269 36113 ft 508 kts 150°
2026-05-08 02:45 64.12454 34.39233 36070 ft 507 kts 150°
2026-05-08 02:45 64.06618 34.48077 36096 ft 507 kts 151°
2026-05-08 02:46 64.00723 34.56963 36098 ft 507 kts 151°
2026-05-08 02:46 63.94837 34.65791 36106 ft 508 kts 151°
2026-05-08 02:47 63.88928 34.74608 36103 ft 508 kts 151°
2026-05-08 02:47 63.84014 34.81906 36080 ft 508 kts 151°
2026-05-08 02:48 63.78092 34.90662 36096 ft 508 kts 151°
2026-05-08 02:48 63.72170 34.99373 36102 ft 508 kts 152°
2026-05-08 02:49 63.66355 35.07882 36100 ft 508 kts 152°
2026-05-08 02:49 63.60420 35.16525 36099 ft 508 kts 152°
2026-05-08 02:50 63.54478 35.25135 36088 ft 507 kts 152°
2026-05-08 02:50 63.48543 35.33690 36096 ft 506 kts 152°
2026-05-08 02:51 63.42612 35.42198 36096 ft 506 kts 152°
2026-05-08 02:51 63.36694 35.50645 36100 ft 505 kts 152°
2026-05-08 02:52 63.30812 35.59000 36098 ft 504 kts 152°
2026-05-08 02:52 63.24889 35.67373 36076 ft 504 kts 153°
2026-05-08 02:53 63.18979 35.75689 36092 ft 503 kts 153°
2026-05-08 02:53 63.12889 35.83166 36095 ft 497 kts 162°
2026-05-08 02:54 63.06410 35.88126 36110 ft 491 kts 169°
2026-05-08 02:54 62.99872 35.92472 36091 ft 492 kts 168°
2026-05-08 02:55 62.90081 35.99173 36087 ft 493 kts 169°
2026-05-08 02:56 62.83652 36.03532 36092 ft 493 kts 169°
2026-05-08 02:56 62.77088 36.07896 36094 ft 494 kts 169°
2026-05-08 02:57 62.70501 36.12253 36092 ft 494 kts 169°
2026-05-08 02:57 62.63918 36.16598 36088 ft 495 kts 169°
2026-05-08 02:58 62.57331 36.20931 36081 ft 495 kts 169°
2026-05-08 02:58 62.50748 36.25243 36077 ft 494 kts 169°
2026-05-08 02:59 62.44175 36.29528 36076 ft 493 kts 169°
2026-05-08 02:59 62.37602 36.33790 36074 ft 493 kts 169°
2026-05-08 03:00 62.31022 36.38038 36070 ft 493 kts 169°
2026-05-08 03:00 62.24446 36.42263 36079 ft 493 kts 169°
2026-05-08 03:01 62.17871 36.46471 36032 ft 493 kts 169°
2026-05-08 03:01 62.11304 36.50656 36056 ft 491 kts 169°
2026-05-08 03:02 62.04753 36.54809 36066 ft 491 kts 170°
2026-05-08 03:02 61.98216 36.58935 36056 ft 490 kts 170°
2026-05-08 03:03 61.91723 36.63016 36061 ft 490 kts 170°
2026-05-08 03:03 61.85182 36.67110 36064 ft 490 kts 170°
2026-05-08 03:04 61.78629 36.71208 36054 ft 490 kts 170°
2026-05-08 03:04 61.72085 36.75292 36056 ft 490 kts 170°
2026-05-08 03:05 61.65542 36.79355 36060 ft 490 kts 170°
2026-05-08 03:05 61.58994 36.83403 36054 ft 491 kts 171°
2026-05-08 03:06 61.52431 36.87443 36048 ft 490 kts 171°
2026-05-08 03:06 61.45886 36.91454 36048 ft 490 kts 171°
2026-05-08 03:07 61.39344 36.95445 36053 ft 490 kts 171°
2026-05-08 03:07 61.32794 36.99426 36048 ft 490 kts 171°
2026-05-08 03:08 61.26381 37.03360 36054 ft 490 kts 170°
2026-05-08 03:08 61.19853 37.07559 36054 ft 491 kts 169°
2026-05-08 03:09 61.13328 37.11763 36054 ft 490 kts 169°
2026-05-08 03:09 61.06853 37.15889 36029 ft 489 kts 170°
2026-05-08 03:10 61.00349 37.20001 36047 ft 488 kts 170°
2026-05-08 03:10 60.93866 37.24080 36043 ft 488 kts 170°
2026-05-08 03:11 60.87383 37.28147 36051 ft 487 kts 170°
2026-05-08 03:11 60.80895 37.32199 36049 ft 487 kts 170°
2026-05-08 03:12 60.74398 37.36244 36039 ft 487 kts 170°
2026-05-08 03:12 60.67916 37.40267 36039 ft 487 kts 170°
2026-05-08 03:13 60.61428 37.44276 36037 ft 487 kts 170°
2026-05-08 03:13 60.54936 37.48270 36047 ft 487 kts 170°
2026-05-08 03:14 60.48483 37.52226 36043 ft 488 kts 170°
2026-05-08 03:14 60.41969 37.55958 36037 ft 485 kts 173°
2026-05-08 03:15 60.35411 37.59094 36025 ft 483 kts 174°
2026-05-08 03:15 60.28873 37.62206 36036 ft 483 kts 174°
2026-05-08 03:16 60.22344 37.65401 36037 ft 482 kts 174°
2026-05-08 03:16 60.15787 37.68628 36033 ft 481 kts 174°
2026-05-08 03:17 60.09323 37.71791 36036 ft 481 kts 174°
2026-05-08 03:17 60.02827 37.74952 36040 ft 480 kts 174°
2026-05-08 03:18 59.96329 37.77749 36037 ft 475 kts 177°
2026-05-08 03:18 59.89819 37.80038 36032 ft 475 kts 178°
2026-05-08 03:19 59.83312 37.82376 36041 ft 476 kts 177°
2026-05-08 03:19 59.76801 37.84795 36006 ft 476 kts 177°
2026-05-08 03:20 59.70293 37.87213 36030 ft 476 kts 177°
2026-05-08 03:20 59.63791 37.89518 36040 ft 474 kts 178°
2026-05-08 03:21 59.57296 37.91728 36024 ft 473 kts 178°
2026-05-08 03:21 59.50809 37.93973 36023 ft 472 kts 178°
2026-05-08 03:22 59.44334 37.96209 36026 ft 472 kts 178°
2026-05-08 03:22 59.37870 37.98427 36022 ft 471 kts 178°
2026-05-08 03:23 59.31539 38.00592 36009 ft 470 kts 179°
2026-05-08 03:23 59.25110 38.01519 36022 ft 458 kts 189°
2026-05-08 03:24 59.18825 38.00545 36019 ft 452 kts 193°
2026-05-08 03:24 59.12546 37.99465 36019 ft 453 kts 192°
2026-05-08 03:25 59.06252 37.98441 36021 ft 454 kts 192°
2026-05-08 03:25 58.99964 37.97441 36022 ft 454 kts 192°
2026-05-08 03:26 58.93700 37.96447 36020 ft 455 kts 192°
2026-05-08 03:26 58.87349 37.95441 36013 ft 455 kts 192°
2026-05-08 03:27 58.81084 37.94437 36018 ft 455 kts 192°
2026-05-08 03:27 58.74776 37.93403 36016 ft 455 kts 192°
2026-05-08 03:28 58.68475 37.92378 36001 ft 454 kts 192°
2026-05-08 03:28 58.62184 37.91461 36005 ft 454 kts 191°
2026-05-08 03:29 58.55858 37.90627 36013 ft 455 kts 191°
2026-05-08 03:29 58.49545 37.89791 36001 ft 456 kts 191°
2026-05-08 03:30 58.40034 37.88514 36009 ft 456 kts 191°
2026-05-08 03:31 58.27365 37.86816 36000 ft 456 kts 191°
2026-05-08 03:32 58.18941 37.85690 36004 ft 456 kts 191°
2026-05-08 03:32 58.12603 37.84852 36011 ft 456 kts 191°
2026-05-08 03:33 58.06264 37.84016 35991 ft 457 kts 191°
2026-05-08 03:33 57.99920 37.83180 35975 ft 457 kts 190°
2026-05-08 03:34 57.93574 37.82348 35996 ft 457 kts 190°
2026-05-08 03:34 57.87219 37.81516 36002 ft 458 kts 190°
2026-05-08 03:35 57.80855 37.80680 35991 ft 458 kts 191°
2026-05-08 03:35 57.74491 37.79771 35965 ft 458 kts 191°
2026-05-08 03:36 57.68174 37.78851 35986 ft 458 kts 191°
2026-05-08 03:36 57.61776 37.77937 35981 ft 459 kts 190°
2026-05-08 03:37 57.55440 37.77036 35991 ft 460 kts 190°
2026-05-08 03:37 57.49046 37.76131 35994 ft 461 kts 190°
2026-05-08 03:38 57.42641 37.75255 35991 ft 462 kts 190°
2026-05-08 03:38 57.36216 37.74439 35985 ft 463 kts 190°
2026-05-08 03:39 57.29795 37.73624 35991 ft 462 kts 190°
2026-05-08 03:39 57.23368 37.72802 35986 ft 463 kts 190°
2026-05-08 03:40 57.16945 37.71982 35981 ft 463 kts 190°
2026-05-08 03:40 57.10535 37.71072 35984 ft 460 kts 193°
2026-05-08 03:41 57.04288 37.68909 35991 ft 456 kts 197°
2026-05-08 03:41 56.98086 37.66575 35975 ft 456 kts 197°
2026-05-08 03:42 56.91865 37.64279 35981 ft 456 kts 197°
2026-05-08 03:42 56.85628 37.62010 35981 ft 457 kts 197°
2026-05-08 03:43 56.79393 37.59755 35987 ft 457 kts 197°
2026-05-08 03:43 56.73136 37.57499 35959 ft 458 kts 197°
2026-05-08 03:44 56.66878 37.55248 35980 ft 459 kts 196°
2026-05-08 03:44 56.60602 37.53000 35984 ft 461 kts 196°
2026-05-08 03:45 56.54292 37.50747 35979 ft 462 kts 196°
2026-05-08 03:45 56.47976 37.48500 35974 ft 463 kts 196°
2026-05-08 03:46 56.41653 37.46258 35958 ft 463 kts 195°
2026-05-08 03:46 56.35332 37.44024 35970 ft 463 kts 195°
2026-05-08 03:47 56.29003 37.41795 35964 ft 463 kts 195°
2026-05-08 03:47 56.22693 37.39578 35967 ft 462 kts 195°
2026-05-08 03:48 56.16377 37.37366 35950 ft 462 kts 195°
2026-05-08 03:48 56.10066 37.35164 35956 ft 462 kts 195°
2026-05-08 03:49 56.03760 37.32974 35965 ft 462 kts 195°
2026-05-08 03:49 55.97352 37.32546 35973 ft 473 kts 172°
2026-05-08 03:49 55.94193 37.34314 35976 ft 481 kts 159°
2026-05-08 03:50 55.91281 37.37352 35974 ft 486 kts 149°
2026-05-08 03:50 55.85715 37.44257 35968 ft 489 kts 149°
2026-05-08 03:51 55.80084 37.51110 35931 ft 491 kts 149°
2026-05-08 03:51 55.74380 37.57871 35959 ft 493 kts 150°
2026-05-08 03:52 55.68657 37.64612 35951 ft 494 kts 150°
2026-05-08 03:52 55.62855 37.71060 35950 ft 491 kts 155°
2026-05-08 03:53 55.56816 37.76672 35943 ft 490 kts 156°
2026-05-08 03:53 55.50785 37.82276 35965 ft 489 kts 155°
2026-05-08 03:54 55.44774 37.87913 35968 ft 489 kts 155°
2026-05-08 03:54 55.38602 37.92807 35969 ft 483 kts 165°
2026-05-08 03:55 55.32120 37.95572 35971 ft 478 kts 174°
2026-05-08 03:55 55.25594 37.97419 35940 ft 478 kts 174°
2026-05-08 03:56 55.18977 37.99318 35960 ft 479 kts 174°
2026-05-08 03:56 55.12424 38.01244 35966 ft 481 kts 174°
2026-05-08 03:57 55.05764 38.03212 35966 ft 483 kts 174°
2026-05-08 03:57 54.99133 38.05163 35965 ft 484 kts 174°
2026-05-08 03:58 54.92492 38.07109 35964 ft 484 kts 174°
2026-05-08 03:58 54.85891 38.09035 35957 ft 483 kts 173°
2026-05-08 03:59 54.79262 38.10965 35964 ft 483 kts 173°
2026-05-08 03:59 54.72640 38.12885 35962 ft 482 kts 173°
2026-05-08 04:00 54.66019 38.14806 35968 ft 482 kts 173°
2026-05-08 04:00 54.59423 38.16720 35970 ft 481 kts 173°
2026-05-08 04:01 54.52820 38.18629 35952 ft 481 kts 173°
2026-05-08 04:01 54.46216 38.20536 35968 ft 481 kts 173°
2026-05-08 04:02 54.39593 38.22457 35967 ft 482 kts 173°
2026-05-08 04:02 54.33055 38.25144 35970 ft 486 kts 163°
2026-05-08 04:03 54.26818 38.29688 35977 ft 488 kts 158°
2026-05-08 04:03 54.17536 38.36898 35977 ft 488 kts 158°
2026-05-08 04:04 54.11334 38.41626 35976 ft 488 kts 158°
2026-05-08 04:04 54.05115 38.46326 35981 ft 488 kts 158°
2026-05-08 04:05 53.98922 38.50988 35983 ft 487 kts 158°
2026-05-08 04:05 53.92725 38.55641 35983 ft 487 kts 157°
2026-05-08 04:06 53.86532 38.60278 35989 ft 487 kts 157°
2026-05-08 04:06 53.80329 38.64907 35992 ft 487 kts 157°
2026-05-08 04:07 53.74124 38.69523 35992 ft 487 kts 158°
2026-05-08 04:07 53.67920 38.74123 35988 ft 487 kts 157°
2026-05-08 04:08 53.61718 38.78708 35990 ft 487 kts 158°
2026-05-08 04:08 53.55509 38.83282 36005 ft 486 kts 158°
2026-05-08 04:09 53.49347 38.87809 35996 ft 486 kts 158°
2026-05-08 04:09 53.43145 38.92347 35993 ft 486 kts 158°
2026-05-08 04:10 53.36920 38.96743 36000 ft 486 kts 158°
2026-05-08 04:10 53.30787 39.00994 36012 ft 485 kts 158°
2026-05-08 04:11 53.24540 39.05324 36001 ft 486 kts 158°
2026-05-08 04:11 53.18304 39.09651 36017 ft 485 kts 158°
2026-05-08 04:12 53.12068 39.13970 36020 ft 485 kts 158°
2026-05-08 04:12 53.05820 39.18283 36021 ft 486 kts 158°
2026-05-08 04:13 52.99574 39.22581 36022 ft 487 kts 158°
2026-05-08 04:13 52.93306 39.26879 36018 ft 488 kts 158°
2026-05-08 04:14 52.88083 39.30450 36017 ft 488 kts 158°
2026-05-08 04:14 52.81793 39.34738 36016 ft 489 kts 158°
2026-05-08 04:15 52.75494 39.39021 36023 ft 489 kts 158°
2026-05-08 04:15 52.69196 39.43289 36022 ft 489 kts 158°
2026-05-08 04:16 52.62897 39.47544 36021 ft 489 kts 158°
2026-05-08 04:16 52.56596 39.51787 36020 ft 489 kts 158°
2026-05-08 04:17 52.50285 39.56026 36023 ft 489 kts 158°
2026-05-08 04:17 52.43998 39.60281 36023 ft 489 kts 155°
2026-05-08 04:18 52.37907 39.65242 36017 ft 489 kts 153°
2026-05-08 04:18 52.31840 39.70294 36028 ft 488 kts 152°
2026-05-08 04:19 52.25772 39.75293 36022 ft 489 kts 153°
2026-05-08 04:19 52.19725 39.80233 36026 ft 489 kts 153°
2026-05-08 04:20 52.13630 39.85195 36024 ft 489 kts 153°
2026-05-08 04:20 52.07537 39.90143 36030 ft 490 kts 153°
2026-05-08 04:21 52.01440 39.95081 36026 ft 490 kts 153°
2026-05-08 04:21 51.95349 40.00005 36031 ft 490 kts 153°
2026-05-08 04:22 51.89353 40.04851 36020 ft 490 kts 153°
2026-05-08 04:22 51.83240 40.09770 36030 ft 490 kts 153°
2026-05-08 04:23 51.77122 40.14658 36034 ft 490 kts 153°
2026-05-08 04:23 51.71038 40.19629 36026 ft 489 kts 149°
2026-05-08 04:24 51.65320 40.25569 36025 ft 489 kts 146°
2026-05-08 04:24 51.59667 40.31541 36022 ft 489 kts 146°
2026-05-08 04:25 51.53902 40.37481 36028 ft 489 kts 147°
2026-05-08 04:25 51.48195 40.43282 36039 ft 488 kts 147°
2026-05-08 04:26 51.42463 40.49130 36025 ft 488 kts 147°
2026-05-08 04:26 51.36734 40.54980 36029 ft 488 kts 147°
2026-05-08 04:27 51.30642 40.59692 36042 ft 488 kts 161°
2026-05-08 04:27 51.24042 40.62127 36043 ft 487 kts 172°
2026-05-08 04:28 51.17324 40.63635 36022 ft 488 kts 172°
2026-05-08 04:28 51.10640 40.65155 36034 ft 488 kts 172°
2026-05-08 04:29 51.03930 40.66743 36030 ft 488 kts 171°
2026-05-08 04:29 50.97226 40.68346 36034 ft 488 kts 171°
2026-05-08 04:30 50.90501 40.69949 36039 ft 488 kts 171°
2026-05-08 04:30 50.83788 40.71540 36035 ft 488 kts 171°
2026-05-08 04:31 50.77068 40.73128 36035 ft 488 kts 171°
2026-05-08 04:31 50.70345 40.74713 36016 ft 488 kts 171°
2026-05-08 04:32 50.63645 40.76485 36028 ft 487 kts 165°
2026-05-08 04:32 50.57309 40.80240 36039 ft 486 kts 153°
2026-05-08 04:33 50.51520 40.85732 36037 ft 486 kts 147°
2026-05-08 04:33 50.45852 40.91412 36033 ft 487 kts 147°
2026-05-08 04:34 50.40106 40.97085 36031 ft 487 kts 147°
2026-05-08 04:34 50.34447 41.02603 36031 ft 487 kts 147°
2026-05-08 04:35 50.28679 41.08199 36025 ft 487 kts 148°
2026-05-08 04:35 50.22910 41.13783 36024 ft 487 kts 148°
2026-05-08 04:36 50.17144 41.19352 36027 ft 487 kts 148°
2026-05-08 04:36 50.11382 41.24902 36028 ft 487 kts 148°
2026-05-08 04:37 50.05615 41.30442 36031 ft 487 kts 148°
2026-05-08 04:37 49.99791 41.35803 36034 ft 487 kts 154°
2026-05-08 04:38 49.93445 41.39415 36030 ft 487 kts 165°
2026-05-08 04:38 49.86779 41.41308 36034 ft 487 kts 171°
2026-05-08 04:39 49.80080 41.42966 36029 ft 488 kts 171°
2026-05-08 04:39 49.73379 41.44665 36030 ft 488 kts 170°
2026-05-08 04:40 49.66714 41.46394 36039 ft 488 kts 170°
2026-05-08 04:40 49.59968 41.48153 36039 ft 489 kts 170°
2026-05-08 04:41 49.53295 41.49887 36035 ft 489 kts 170°
2026-05-08 04:41 49.46584 41.51624 36032 ft 489 kts 170°
2026-05-08 04:42 49.39879 41.53353 36035 ft 489 kts 170°
2026-05-08 04:42 49.33170 41.55079 36033 ft 489 kts 170°
2026-05-08 04:43 49.26449 41.56803 36036 ft 489 kts 170°
2026-05-08 04:43 49.19739 41.58520 36031 ft 489 kts 170°
2026-05-08 04:44 49.13022 41.60233 36035 ft 489 kts 170°
2026-05-08 04:44 49.06317 41.61939 36036 ft 489 kts 170°
2026-05-08 04:45 48.99611 41.63641 36037 ft 489 kts 170°
2026-05-08 04:45 48.92901 41.65339 36040 ft 489 kts 170°
2026-05-08 04:46 48.86183 41.67034 36047 ft 489 kts 170°
2026-05-08 04:46 48.79469 41.68723 36038 ft 489 kts 170°
2026-05-08 04:47 48.72789 41.70400 36039 ft 489 kts 170°
2026-05-08 04:47 48.66063 41.72084 36046 ft 489 kts 170°
2026-05-08 04:48 48.59346 41.73761 36049 ft 490 kts 170°
2026-05-08 04:48 48.52613 41.75437 36050 ft 490 kts 170°
2026-05-08 04:49 48.45884 41.77108 36044 ft 490 kts 170°
2026-05-08 04:49 48.39155 41.78775 36051 ft 490 kts 170°
2026-05-08 04:50 48.32434 41.80563 36049 ft 490 kts 166°
2026-05-08 04:50 48.25808 41.82956 36052 ft 490 kts 165°
2026-05-08 04:51 48.19186 41.85386 36054 ft 490 kts 166°
2026-05-08 04:51 48.12554 41.87778 36052 ft 490 kts 166°
2026-05-08 04:52 48.05963 41.90132 36061 ft 490 kts 166°
2026-05-08 04:52 47.99325 41.92495 36068 ft 492 kts 166°
2026-05-08 04:53 47.95992 41.93680 36258 ft 493 kts 166°
2026-05-08 04:53 47.92645 41.94868 36619 ft 492 kts 166°
2026-05-08 04:53 47.89320 41.96048 36983 ft 490 kts 166°
2026-05-08 04:53 47.86005 41.97223 37321 ft 489 kts 166°
2026-05-08 04:54 47.82699 41.98393 37613 ft 489 kts 166°
2026-05-08 04:54 47.79392 41.99560 37893 ft 489 kts 166°
2026-05-08 04:54 47.72858 42.01859 38035 ft 492 kts 166°
2026-05-08 04:55 47.66198 42.04197 38051 ft 491 kts 166°
2026-05-08 04:55 47.59562 42.06520 38071 ft 489 kts 166°
2026-05-08 04:56 47.52942 42.08830 38075 ft 488 kts 166°
2026-05-08 04:56 47.46344 42.11131 38070 ft 487 kts 166°
2026-05-08 04:57 47.39745 42.13425 38073 ft 487 kts 166°
2026-05-08 04:57 47.33177 42.15700 38079 ft 488 kts 166°
2026-05-08 04:58 47.26562 42.17988 38087 ft 489 kts 166°
2026-05-08 04:58 47.19934 42.20276 38085 ft 490 kts 166°
2026-05-08 04:59 47.13280 42.22563 38085 ft 492 kts 166°
2026-05-08 04:59 47.07732 42.24467 38098 ft 493 kts 166°
2026-05-08 05:00 47.01033 42.26720 38102 ft 495 kts 169°
2026-05-08 05:00 46.94242 42.28406 38108 ft 496 kts 171°
2026-05-08 05:01 46.87429 42.30000 38108 ft 495 kts 171°
2026-05-08 05:01 46.80627 42.31630 38095 ft 494 kts 170°
2026-05-08 05:02 46.73838 42.33274 38112 ft 493 kts 170°
2026-05-08 05:02 46.67130 42.35052 38116 ft 493 kts 167°
2026-05-08 05:03 46.60434 42.37229 38115 ft 494 kts 167°
2026-05-08 05:03 46.53719 42.39441 38120 ft 495 kts 167°
2026-05-08 05:04 46.46996 42.41620 38125 ft 496 kts 167°
2026-05-08 05:04 46.40251 42.43781 38123 ft 496 kts 167°
2026-05-08 05:05 46.33506 42.45934 38130 ft 497 kts 167°
2026-05-08 05:05 46.26755 42.48100 38130 ft 497 kts 167°
2026-05-08 05:06 46.19999 42.50243 38127 ft 497 kts 167°
2026-05-08 05:06 46.13242 42.52380 38135 ft 496 kts 167°
2026-05-08 05:07 46.06501 42.54495 38146 ft 496 kts 167°
2026-05-08 05:07 45.99763 42.56507 38136 ft 496 kts 168°
2026-05-08 05:08 45.92998 42.58471 38148 ft 496 kts 167°
2026-05-08 05:08 45.86225 42.60464 38153 ft 496 kts 168°
2026-05-08 05:09 45.79518 42.62442 38154 ft 495 kts 167°
2026-05-08 05:09 45.72773 42.64416 38146 ft 494 kts 167°
2026-05-08 05:10 45.62682 42.67380 38158 ft 494 kts 168°
2026-05-08 05:11 45.55936 42.69349 38160 ft 495 kts 168°
2026-05-08 05:11 45.49185 42.71317 38174 ft 494 kts 168°
2026-05-08 05:12 45.42460 42.73347 38159 ft 494 kts 166°
2026-05-08 05:12 45.35795 42.75713 38151 ft 493 kts 165°
2026-05-08 05:13 45.29145 42.78102 38170 ft 493 kts 165°
2026-05-08 05:13 45.22474 42.80440 38181 ft 494 kts 166°
2026-05-08 05:14 45.15781 42.82755 38167 ft 495 kts 166°
2026-05-08 05:14 45.09079 42.85069 38186 ft 496 kts 166°
2026-05-08 05:15 45.02376 42.87382 38179 ft 496 kts 166°
2026-05-08 05:15 44.95671 42.89673 38194 ft 496 kts 166°
2026-05-08 05:16 44.88975 42.91961 38179 ft 495 kts 166°
2026-05-08 05:16 44.82299 42.94241 38176 ft 493 kts 166°
2026-05-08 05:17 44.75634 42.96511 38176 ft 492 kts 165°
2026-05-08 05:17 44.68985 42.98788 38197 ft 491 kts 166°
2026-05-08 05:18 44.62474 43.01041 38174 ft 491 kts 166°
2026-05-08 05:18 44.55733 43.02463 38184 ft 490 kts 176°
2026-05-08 05:19 44.48923 43.03040 38193 ft 491 kts 176°
2026-05-08 05:19 44.42100 43.03641 38189 ft 491 kts 175°
2026-05-08 05:20 44.35270 43.04302 38190 ft 492 kts 175°
2026-05-08 05:20 44.28434 43.04971 38201 ft 492 kts 175°
2026-05-08 05:21 44.21607 43.05759 38213 ft 493 kts 173°
2026-05-08 05:21 44.14835 43.06963 38208 ft 494 kts 172°
2026-05-08 05:22 44.08018 43.08218 38204 ft 495 kts 172°
2026-05-08 05:22 44.01137 43.09448 38217 ft 496 kts 172°
2026-05-08 05:23 43.94336 43.10645 38193 ft 496 kts 172°
2026-05-08 05:23 43.87498 43.11844 38184 ft 494 kts 172°
2026-05-08 05:24 43.80682 43.13038 38183 ft 493 kts 172°
2026-05-08 05:24 43.73892 43.14226 38182 ft 491 kts 173°
2026-05-08 05:25 43.67108 43.15408 38180 ft 490 kts 173°
2026-05-08 05:25 43.60346 43.16584 38179 ft 489 kts 173°
2026-05-08 05:26 43.53602 43.17755 38173 ft 489 kts 173°
2026-05-08 05:26 43.46845 43.18926 38186 ft 489 kts 173°
2026-05-08 05:27 43.40092 43.20093 38185 ft 490 kts 173°
2026-05-08 05:27 43.33348 43.21266 38191 ft 491 kts 173°
2026-05-08 05:28 43.26565 43.22456 38200 ft 492 kts 173°
2026-05-08 05:28 43.19768 43.23644 38187 ft 493 kts 173°
2026-05-08 05:29 43.12955 43.24831 38195 ft 494 kts 173°
2026-05-08 05:29 43.06118 43.26019 38197 ft 495 kts 173°
2026-05-08 05:30 42.99293 43.27203 38200 ft 495 kts 173°
2026-05-08 05:30 42.92539 43.28964 38194 ft 494 kts 163°
2026-05-08 05:31 42.86153 43.32399 38193 ft 493 kts 153°
2026-05-08 05:31 42.80096 43.36781 38207 ft 492 kts 152°
2026-05-08 05:32 42.74063 43.41189 38208 ft 492 kts 152°
2026-05-08 05:32 42.68022 43.45543 38212 ft 491 kts 152°
2026-05-08 05:33 42.61975 43.49858 38212 ft 491 kts 153°
2026-05-08 05:33 42.55967 43.54129 38207 ft 490 kts 153°
2026-05-08 05:34 42.49885 43.58444 38198 ft 490 kts 153°
2026-05-08 05:34 42.43842 43.62724 38202 ft 490 kts 153°
2026-05-08 05:35 42.37832 43.66973 38193 ft 490 kts 153°
2026-05-08 05:35 42.31747 43.71265 38192 ft 490 kts 153°
2026-05-08 05:36 42.25731 43.75499 38193 ft 490 kts 153°
2026-05-08 05:36 42.19676 43.79751 38191 ft 490 kts 153°
2026-05-08 05:37 42.13620 43.83994 38183 ft 491 kts 153°
2026-05-08 05:37 42.07557 43.88234 38187 ft 490 kts 154°
2026-05-08 05:38 42.01505 43.92457 38188 ft 490 kts 154°
2026-05-08 05:38 41.95462 43.96664 38182 ft 490 kts 154°
2026-05-08 05:39 41.89518 44.00794 38195 ft 489 kts 154°
2026-05-08 05:39 41.83463 44.04991 38183 ft 489 kts 154°
2026-05-08 05:40 41.77449 44.09152 38184 ft 489 kts 154°
2026-05-08 05:40 41.71391 44.13334 38178 ft 489 kts 154°
2026-05-08 05:41 41.65349 44.17497 38187 ft 489 kts 154°
2026-05-08 05:41 41.59300 44.21657 38186 ft 488 kts 154°
2026-05-08 05:42 41.53277 44.25855 38186 ft 488 kts 154°
2026-05-08 05:42 41.47300 44.30165 38182 ft 488 kts 153°
2026-05-08 05:43 41.41329 44.34467 38185 ft 487 kts 153°
2026-05-08 05:43 41.35358 44.38735 38190 ft 487 kts 154°
2026-05-08 05:44 41.30396 44.42270 38188 ft 487 kts 154°
2026-05-08 05:44 41.24427 44.46516 38193 ft 487 kts 154°
2026-05-08 05:45 41.18452 44.50757 38194 ft 487 kts 154°
2026-05-08 05:45 41.12447 44.54943 38195 ft 487 kts 154°
2026-05-08 05:46 41.06424 44.59102 38192 ft 487 kts 154°
2026-05-08 05:46 41.00442 44.63233 38189 ft 487 kts 155°
2026-05-08 05:47 40.94440 44.67376 38186 ft 487 kts 155°
2026-05-08 05:47 40.88425 44.71523 38185 ft 487 kts 155°
2026-05-08 05:48 40.82426 44.75650 38190 ft 486 kts 155°
2026-05-08 05:48 40.76429 44.79766 38200 ft 486 kts 155°
2026-05-08 05:49 40.70429 44.83877 38201 ft 486 kts 155°
2026-05-08 05:49 40.64423 44.87983 38198 ft 486 kts 155°
2026-05-08 05:50 40.58417 44.92083 38199 ft 486 kts 155°
2026-05-08 05:50 40.52501 44.96391 38195 ft 488 kts 149°
2026-05-08 05:51 40.47171 45.01671 38192 ft 490 kts 145°
2026-05-08 05:51 40.41800 45.07208 38202 ft 491 kts 145°
2026-05-08 05:52 40.36409 45.12701 38194 ft 491 kts 146°
2026-05-08 05:52 40.31029 45.18129 38206 ft 491 kts 146°
2026-05-08 05:53 40.25581 45.23606 38188 ft 491 kts 146°
2026-05-08 05:53 40.20196 45.29012 38186 ft 490 kts 146°
2026-05-08 05:54 40.14780 45.34440 38184 ft 490 kts 146°
2026-05-08 05:54 40.09371 45.39851 38181 ft 490 kts 146°
2026-05-08 05:55 40.03952 45.45261 38168 ft 490 kts 146°
2026-05-08 05:55 39.98546 45.50655 38176 ft 490 kts 146°
2026-05-08 05:56 39.93176 45.56163 38186 ft 491 kts 145°
2026-05-08 05:56 39.87826 45.61694 38173 ft 491 kts 146°
2026-05-08 05:57 39.82459 45.67208 38178 ft 491 kts 146°
2026-05-08 05:57 39.77088 45.72701 38175 ft 491 kts 146°
2026-05-08 05:58 39.71710 45.78194 38190 ft 491 kts 146°
2026-05-08 05:58 39.66284 45.83571 38174 ft 489 kts 150°
2026-05-08 05:59 39.60429 45.87993 38169 ft 485 kts 155°
2026-05-08 05:59 39.54518 45.92192 38179 ft 485 kts 155°
2026-05-08 06:00 39.48613 45.96420 38177 ft 485 kts 155°
2026-05-08 06:00 39.42842 46.00587 38175 ft 484 kts 155°
2026-05-08 06:01 39.37006 46.04805 38182 ft 482 kts 155°
2026-05-08 06:01 39.31147 46.09024 38184 ft 481 kts 155°
2026-05-08 06:02 39.25301 46.13230 38180 ft 480 kts 156°
2026-05-08 06:02 39.19475 46.17411 38168 ft 478 kts 156°
2026-05-08 06:03 39.13670 46.21565 38143 ft 476 kts 156°
2026-05-08 06:03 39.07886 46.25703 38189 ft 475 kts 156°
2026-05-08 06:04 39.02107 46.29827 38198 ft 475 kts 156°
2026-05-08 06:04 38.96329 46.33942 38184 ft 475 kts 157°
2026-05-08 06:05 38.90558 46.38095 38189 ft 476 kts 154°
2026-05-08 06:05 38.85128 46.43060 38188 ft 480 kts 148°
2026-05-08 06:06 38.79825 46.48249 38197 ft 479 kts 149°
2026-05-08 06:06 38.74506 46.53399 38211 ft 479 kts 149°
2026-05-08 06:07 38.69155 46.58530 38178 ft 480 kts 150°
2026-05-08 06:07 38.63837 46.63612 38197 ft 481 kts 150°
2026-05-08 06:08 38.58465 46.68740 38207 ft 483 kts 150°
2026-05-08 06:08 38.53067 46.73880 38186 ft 483 kts 150°
2026-05-08 06:09 38.47664 46.78988 38180 ft 483 kts 150°
2026-05-08 06:09 38.42271 46.84081 38179 ft 482 kts 150°
2026-05-08 06:10 38.36874 46.89174 38175 ft 483 kts 151°
2026-05-08 06:10 38.31452 46.94276 38175 ft 484 kts 151°
2026-05-08 06:11 38.26030 46.99368 38168 ft 485 kts 151°
2026-05-08 06:11 38.20703 47.04364 38168 ft 485 kts 151°
2026-05-08 06:12 38.15270 47.09453 38167 ft 485 kts 151°
2026-05-08 06:12 38.09835 47.14533 38156 ft 484 kts 151°
2026-05-08 06:13 38.04411 47.19593 38157 ft 484 kts 151°
2026-05-08 06:13 37.99027 47.24607 38141 ft 483 kts 152°
2026-05-08 06:14 37.93616 47.29638 38164 ft 482 kts 152°
2026-05-08 06:14 37.88209 47.34654 38158 ft 482 kts 152°
2026-05-08 06:15 37.82805 47.39673 38159 ft 481 kts 152°
2026-05-08 06:15 37.77424 47.44671 38153 ft 479 kts 152°
2026-05-08 06:16 37.72061 47.49645 38166 ft 478 kts 152°
2026-05-08 06:16 37.66698 47.54606 38150 ft 478 kts 153°
2026-05-08 06:17 37.58619 47.62061 38160 ft 479 kts 153°
2026-05-08 06:17 37.53238 47.67018 38145 ft 479 kts 153°
2026-05-08 06:18 37.47888 47.71937 38140 ft 479 kts 153°
2026-05-08 06:18 37.42506 47.76876 38135 ft 478 kts 153°
2026-05-08 06:19 37.37134 47.81787 38143 ft 477 kts 153°
2026-05-08 06:19 37.31758 47.86691 38146 ft 477 kts 153°
2026-05-08 06:20 37.26391 47.91582 38129 ft 477 kts 153°
2026-05-08 06:20 37.21025 47.96465 38132 ft 476 kts 153°
2026-05-08 06:21 37.15756 48.01250 38115 ft 475 kts 154°
2026-05-08 06:21 37.10398 48.06106 38137 ft 475 kts 154°
2026-05-08 06:22 37.05045 48.10951 38134 ft 475 kts 154°
2026-05-08 06:22 36.99688 48.15790 38139 ft 475 kts 154°
2026-05-08 06:23 36.94361 48.20594 38149 ft 475 kts 154°
2026-05-08 06:23 36.88988 48.25431 38159 ft 476 kts 154°
2026-05-08 06:24 36.83604 48.30271 38157 ft 476 kts 154°
2026-05-08 06:24 36.78240 48.35136 38161 ft 480 kts 152°
2026-05-08 06:25 36.73238 48.40785 38156 ft 488 kts 146°
2026-05-08 06:25 36.68335 48.46679 38157 ft 489 kts 146°
2026-05-08 06:26 36.63413 48.52534 38141 ft 489 kts 147°
2026-05-08 06:26 36.58462 48.58365 38144 ft 489 kts 147°
2026-05-08 06:27 36.53513 48.64176 38135 ft 489 kts 147°
2026-05-08 06:27 36.48569 48.69981 38129 ft 488 kts 147°
2026-05-08 06:28 36.44459 48.74789 38127 ft 488 kts 147°
2026-05-08 06:28 36.39510 48.80560 38117 ft 487 kts 148°
2026-05-08 06:29 36.34580 48.86300 38121 ft 486 kts 148°
2026-05-08 06:29 36.29645 48.92038 38119 ft 485 kts 148°
2026-05-08 06:30 36.24721 48.97754 38115 ft 484 kts 148°
2026-05-08 06:30 36.19931 49.03306 38119 ft 483 kts 148°
2026-05-08 06:31 36.15018 49.08988 38100 ft 483 kts 148°
2026-05-08 06:31 36.10102 49.14664 38107 ft 484 kts 148°
2026-05-08 06:32 36.05170 49.20347 38095 ft 485 kts 148°
2026-05-08 06:32 36.00232 49.26027 38073 ft 484 kts 149°
2026-05-08 06:33 35.95294 49.31696 38072 ft 486 kts 148°
2026-05-08 06:33 35.90345 49.37370 38089 ft 486 kts 148°
2026-05-08 06:34 35.85395 49.43036 38083 ft 485 kts 149°
2026-05-08 06:34 35.80452 49.48683 38083 ft 484 kts 149°
2026-05-08 06:35 35.75510 49.54318 38047 ft 484 kts 149°
2026-05-08 06:35 35.70601 49.59907 38092 ft 483 kts 149°
2026-05-08 06:36 35.65672 49.65505 38101 ft 483 kts 149°
2026-05-08 06:36 35.60728 49.71111 38080 ft 483 kts 149°
2026-05-08 06:37 35.55778 49.76715 38082 ft 483 kts 149°
2026-05-08 06:37 35.50837 49.82302 38081 ft 483 kts 149°
2026-05-08 06:38 35.45886 49.87889 38084 ft 482 kts 149°
2026-05-08 06:38 35.40947 49.93453 38079 ft 481 kts 149°
2026-05-08 06:39 35.36028 49.98984 38041 ft 480 kts 150°
2026-05-08 06:39 35.31203 50.04401 38077 ft 479 kts 150°
2026-05-08 06:40 35.26291 50.09903 38066 ft 479 kts 150°
2026-05-08 06:40 35.21367 50.15408 38005 ft 479 kts 150°
2026-05-08 06:41 35.16481 50.20867 38081 ft 479 kts 150°
2026-05-08 06:41 35.11543 50.26372 38034 ft 481 kts 150°
2026-05-08 06:42 35.06555 50.31925 38030 ft 481 kts 150°
2026-05-08 06:42 35.01313 50.36694 38044 ft 458 kts 163°
2026-05-08 06:43 34.95700 50.39868 38041 ft 440 kts 173°
2026-05-08 06:43 34.89918 50.42291 38019 ft 439 kts 173°
2026-05-08 06:44 34.84140 50.44727 38034 ft 440 kts 173°
2026-05-08 06:44 34.78358 50.47203 38041 ft 440 kts 173°
2026-05-08 06:45 34.72590 50.49676 38040 ft 439 kts 173°
2026-05-08 06:45 34.66818 50.52147 38034 ft 439 kts 173°
2026-05-08 06:46 34.61053 50.54618 38041 ft 439 kts 173°
2026-05-08 06:46 34.55286 50.57086 38041 ft 438 kts 173°
2026-05-08 06:47 34.49539 50.59543 38063 ft 438 kts 173°
2026-05-08 06:47 34.43792 50.61997 38068 ft 437 kts 173°
2026-05-08 06:48 34.38051 50.64443 38077 ft 437 kts 173°
2026-05-08 06:48 34.32299 50.66889 38070 ft 438 kts 173°
2026-05-08 06:49 34.26573 50.69322 38087 ft 439 kts 173°
2026-05-08 06:49 34.20812 50.71786 38144 ft 440 kts 174°
2026-05-08 06:50 34.14982 50.74238 38104 ft 444 kts 173°
2026-05-08 06:50 34.09148 50.76706 38123 ft 444 kts 174°
2026-05-08 06:51 34.03328 50.79168 38149 ft 441 kts 174°
2026-05-08 06:51 33.97534 50.81604 38135 ft 441 kts 174°
2026-05-08 06:52 33.91753 50.84035 38139 ft 440 kts 174°
2026-05-08 06:52 33.85969 50.86476 38132 ft 440 kts 174°
2026-05-08 06:53 33.80193 50.88906 38137 ft 441 kts 174°
2026-05-08 06:53 33.74387 50.91336 38165 ft 443 kts 174°
2026-05-08 06:54 33.68527 50.93788 38162 ft 446 kts 174°
2026-05-08 06:54 33.62686 50.96233 38174 ft 449 kts 174°
2026-05-08 06:55 33.56775 50.98703 38172 ft 450 kts 174°
2026-05-08 06:55 33.50959 51.01133 38182 ft 451 kts 174°
2026-05-08 06:56 33.45025 51.03603 38189 ft 451 kts 174°
2026-05-08 06:56 33.39108 51.06060 38196 ft 450 kts 174°
2026-05-08 06:57 33.33190 51.08517 38192 ft 449 kts 174°
2026-05-08 06:57 33.27281 51.10965 38189 ft 450 kts 174°
2026-05-08 06:58 33.21403 51.13397 38195 ft 450 kts 174°
2026-05-08 06:58 33.15460 51.15854 38186 ft 449 kts 174°
2026-05-08 06:59 33.09580 51.18281 38180 ft 449 kts 174°
2026-05-08 06:59 33.03661 51.20720 38189 ft 450 kts 174°
2026-05-08 07:00 32.97754 51.23153 38177 ft 449 kts 174°
2026-05-08 07:00 32.91840 51.25584 38194 ft 450 kts 174°
2026-05-08 07:01 32.85921 51.28012 38173 ft 450 kts 174°
2026-05-08 07:01 32.79992 51.30438 38153 ft 449 kts 174°
2026-05-08 07:02 32.74072 51.32852 38194 ft 449 kts 174°
2026-05-08 07:02 32.68131 51.35276 38170 ft 451 kts 174°
2026-05-08 07:03 32.62192 51.37697 38133 ft 451 kts 174°
2026-05-08 07:03 32.56255 51.40116 38157 ft 451 kts 174°
2026-05-08 07:04 32.50347 51.42512 38163 ft 452 kts 174°
2026-05-08 07:04 32.44400 51.44924 38148 ft 452 kts 174°
2026-05-08 07:05 32.38422 51.47341 38160 ft 450 kts 174°
2026-05-08 07:05 32.32532 51.49723 38163 ft 450 kts 174°
2026-05-08 07:06 32.26607 51.52116 38173 ft 450 kts 174°
2026-05-08 07:06 32.20686 51.54503 38177 ft 450 kts 174°
2026-05-08 07:07 32.14757 51.56890 38177 ft 450 kts 174°
2026-05-08 07:07 32.08834 51.59272 38170 ft 450 kts 174°
2026-05-08 07:08 32.02900 51.61656 38181 ft 450 kts 174°
2026-05-08 07:08 31.96964 51.64036 38195 ft 451 kts 174°
2026-05-08 07:09 31.91005 51.66422 38205 ft 452 kts 173°
2026-05-08 07:09 31.85066 51.68802 38207 ft 452 kts 173°
2026-05-08 07:10 31.79113 51.71178 38202 ft 451 kts 173°